User: anonymous   Login
Location: Oshawa
(43.9000°N, 78.8670°W)
Time: 03:45:55
(UTC-05:00)
Language:

Explorer 7 - Orbit

View from above orbital plane
View from above orbital plane
View from above satellite
View from above satellite

Ground track
Ground track

The orbit data is extracted from the following two-line orbital elements,

1 00022U 59009A   16040.88860982  .00003463  00000-0  29005-3 0  9992
2 00022  50.2854 351.8005 0144758 312.6844  46.1982 14.93184424987609
Epoch (UTC): 09 February 2016 21:19:35
Eccentricity: 0.0144758
inclination: 50.2854°
perigee height: 487 km
apogee height: 689 km
right ascension of ascending node: 351.8005°
argument of perigee: 312.6844°
revolutions per day: 14.93184424
mean anomaly at epoch: 46.1982°
orbit number at epoch: 98760

The dashed part of the orbit path shows where the satellite is in the earth's shadow,  

DLR